| time (UTC) | temp F | wind direction | speed MPH | gust MPH | rain 1hr in | rain 24hr in | rain mn in | humidity % | barometer mb |
| 20260504141113 | 78 | 197 | 2.0 | 4.0 | 0.00 | 2.28 | 2.24 | 86 | 1009.8 |
| 20260504140343 | 78 | 200 | 2.0 | 7.0 | 0.00 | 2.28 | 2.24 | 86 | 1009.8 |
| 20260504130739 | 79 | 247 | 1.0 | 4.0 | 0.00 | 2.34 | 2.24 | 88 | 1009.3 |
| 20260504130452 | 79 | 226 | 1.0 | 3.0 | 0.00 | 2.34 | 2.24 | 88 | 1009.4 |
| 20260504120119 | 80 | 212 | 2.0 | 4.0 | 0.00 | 2.34 | 2.24 | 87 | 1009.1 |
| 20260504110540 | 80 | 9 | 1.0 | 3.0 | 0.00 | 2.35 | 2.24 | 87 | 1008.8 |
| 20260504100535 | 81 | 25 | 2.0 | 3.0 | 0.00 | 2.35 | 2.24 | 86 | 1008.1 |
| 20260504081956 | 84 | 38 | 7.0 | 12.0 | 0.00 | 2.35 | 2.24 | 80 | 1007.4 |
| 20260504081444 | 84 | 28 | 7.0 | 12.0 | 0.00 | 2.35 | 2.24 | 78 | 1007.3 |
| 20260504080941 | 84 | 56 | 6.0 | 12.0 | 0.00 | 2.35 | 2.24 | 79 | 1007.3 |
| 20260504080434 | 84 | 54 | 7.0 | 12.0 | 0.00 | 2.35 | 2.24 | 78 | 1007.2 |
| 20260504050601 | 84 | 28 | 6.0 | 13.0 | 0.00 | 2.35 | 2.24 | 84 | 1008.8 |
| 20260504045812 | 84 | 335 | 8.0 | 13.0 | 0.00 | 2.35 | 2.24 | 84 | 1008.9 |
| 20260504045042 | 84 | 39 | 8.0 | 13.0 | 0.00 | 2.35 | 2.24 | 84 | 1009.0 |
| 20260504044536 | 84 | 33 | 7.0 | 13.0 | 0.00 | 2.35 | 2.24 | 83 | 1009.1 |
| 20260504044030 | 84 | 313 | 7.0 | 15.0 | 0.00 | 2.35 | 2.24 | 84 | 1009.1 |
| 20260504043524 | 84 | 45 | 8.0 | 16.0 | 0.00 | 2.35 | 2.24 | 84 | 1009.3 |
| 20260504043018 | 84 | 359 | 8.0 | 16.0 | 0.00 | 2.35 | 2.24 | 84 | 1009.3 |
| 20260504042512 | 83 | 15 | 7.0 | 15.0 | 0.00 | 2.35 | 2.24 | 85 | 1009.3 |
| 20260504042006 | 83 | 15 | 8.0 | 15.0 | 0.00 | 2.35 | 2.24 | 85 | 1009.4 |
| 20260504041500 | 83 | 43 | 9.0 | 15.0 | 0.00 | 2.35 | 2.24 | 85 | 1009.7 |
| 20260504040955 | 83 | 359 | 8.0 | 16.0 | 0.00 | 2.35 | 2.24 | 85 | 1009.7 |
| 20260504040448 | 83 | 4 | 9.0 | 16.0 | 0.00 | 2.35 | 2.24 | 85 | 1009.8 |
| 20260504035942 | 83 | 25 | 9.0 | 16.0 | 0.00 | 2.35 | 2.24 | 85 | 1009.9 |
| 20260504035436 | 83 | 77 | 9.0 | 16.0 | 0.00 | 2.35 | 2.24 | 85 | 1010.0 |
| 20260504034933 | 83 | 41 | 8.0 | 15.0 | 0.00 | 2.35 | 2.24 | 85 | 1010.0 |
| 20260504034656 | 84 | 52 | 7.0 | 15.0 | 0.00 | 2.35 | 2.24 | 85 | 1010.0 |
| 20260504033920 | 83 | 17 | 8.0 | 16.0 | 0.00 | 2.35 | 2.24 | 86 | 1010.1 |
| 20260504033420 | 83 | 15 | 9.0 | 16.0 | 0.00 | 2.35 | 2.24 | 86 | 1010.1 |
| 20260504032921 | 83 | 50 | 8.0 | 15.0 | 0.00 | 2.35 | 2.24 | 86 | 1010.3 |
| 20260504032424 | 83 | 359 | 8.0 | 16.0 | 0.00 | 2.35 | 2.24 | 87 | 1010.2 |
| 20260504031920 | 83 | 359 | 9.0 | 16.0 | 0.00 | 2.35 | 2.24 | 88 | 1010.2 |
| 20260504031641 | 83 | 29 | 9.0 | 16.0 | 0.00 | 2.35 | 2.24 | 87 | 1010.2 |
| 20260504030920 | 83 | 4 | 9.0 | 16.0 | 0.00 | 2.35 | 2.24 | 88 | 1010.2 |
| 20260504030420 | 83 | 12 | 7.0 | 14.0 | 0.00 | 2.35 | 2.24 | 87 | 1010.2 |
| 20260504025920 | 83 | 22 | 7.0 | 16.0 | 0.00 | 2.35 | 2.24 | 87 | 1010.3 |
| 20260504025647 | 83 | 41 | 8.0 | 16.0 | 0.00 | 2.35 | 2.24 | 88 | 1010.2 |
| 20260504025140 | 83 | 336 | 7.0 | 13.0 | 0.00 | 2.35 | 2.24 | 88 | 1010.2 |
| 20260504024420 | 83 | 354 | 7.0 | 13.0 | 0.00 | 2.35 | 2.24 | 88 | 1010.3 |
| 20260504023920 | 83 | 8 | 8.0 | 14.0 | 0.00 | 2.35 | 2.24 | 88 | 1010.4 |
| 20260504023420 | 83 | 321 | 8.0 | 15.0 | 0.00 | 2.35 | 2.24 | 87 | 1010.4 |
| 20260504022920 | 83 | 17 | 8.0 | 15.0 | 0.00 | 2.35 | 2.24 | 87 | 1010.3 |
| 20260504022420 | 83 | 10 | 8.0 | 14.0 | 0.00 | 2.35 | 2.24 | 87 | 1010.3 |
| 20260504021920 | 83 | 359 | 7.0 | 15.0 | 0.00 | 2.35 | 2.24 | 88 | 1010.3 |
| 20260504021420 | 82 | 348 | 8.0 | 15.0 | 0.00 | 2.35 | 2.24 | 88 | 1010.3 |
| 20260504021153 | 82 | 33 | 7.0 | 14.0 | 0.00 | 2.35 | 2.24 | 89 | 1010.3 |
| 20260504020421 | 82 | 28 | 7.0 | 14.0 | 0.00 | 2.35 | 2.24 | 89 | 1010.5 |
| 20260504015920 | 81 | 74 | 8.0 | 15.0 | 0.00 | 2.35 | 2.24 | 89 | 1010.6 |
| 20260504015639 | 81 | 31 | 6.0 | 15.0 | 0.00 | 2.35 | 2.24 | 89 | 1010.7 |
| 20260504014920 | 82 | 14 | 5.0 | 14.0 | 0.00 | 2.35 | 2.24 | 90 | 1010.6 |
| 20260504014420 | 82 | 38 | 4.0 | 14.0 | 0.00 | 2.35 | 2.24 | 91 | 1010.7 |
| 20260504013920 | 81 | 67 | 4.0 | 12.0 | 0.00 | 2.35 | 2.24 | 91 | 1010.7 |
| 20260504013421 | 81 | 32 | 4.0 | 10.0 | 0.00 | 2.35 | 2.24 | 91 | 1010.8 |
| 20260504012922 | 80 | 359 | 4.0 | 10.0 | 0.00 | 2.35 | 2.24 | 91 | 1010.8 |
| 20260504012420 | 80 | 31 | 4.0 | 10.0 | 0.00 | 2.35 | 2.24 | 91 | 1010.8 |
| 20260504011920 | 80 | 25 | 4.0 | 9.0 | 0.00 | 2.35 | 2.24 | 91 | 1010.8 |
| 20260504011420 | 80 | 98 | 3.0 | 9.0 | 0.00 | 2.35 | 2.24 | 91 | 1010.7 |
| 20260504010920 | 80 | 17 | 3.0 | 9.0 | 0.00 | 2.35 | 2.24 | 91 | 1010.7 |
| 20260504010645 | 80 | 31 | 3.0 | 9.0 | 0.00 | 2.35 | 2.24 | 90 | 1010.6 |
| 20260504005926 | 80 | 30 | 3.0 | 9.0 | 0.00 | 2.35 | 2.24 | 91 | 1010.6 |
| 20260504005419 | 80 | 359 | 2.0 | 7.0 | 0.00 | 2.35 | 2.24 | 91 | 1010.6 |
| 20260504004914 | 80 | 35 | 2.0 | 8.0 | 0.00 | 2.35 | 2.24 | 91 | 1010.5 |
| 20260504004859 | 80 | 27 | 2.0 | 8.0 | 0.00 | 2.35 | 2.24 | 91 | 1010.5 |
| 20260504003900 | 80 | 81 | 2.0 | 6.0 | 0.00 | 2.35 | 2.24 | 91 | 1010.4 |
| 20260504003842 | 80 | 95 | 3.0 | 9.0 | 0.00 | 2.35 | 2.24 | 92 | 1010.3 |
| 20260504002849 | 80 | 66 | 3.0 | 9.0 | 0.00 | 2.35 | 2.24 | 92 | 1010.4 |
| 20260504002342 | 80 | 97 | 3.0 | 10.0 | 0.00 | 2.35 | 2.24 | 92 | 1010.4 |
| 20260504001838 | 80 | 131 | 5.0 | 11.0 | 0.00 | 2.36 | 2.24 | 93 | 1010.3 |
| 20260504001331 | 79 | 149 | 6.0 | 13.0 | 0.00 | 2.36 | 2.24 | 93 | 1010.3 |
| 20260504001047 | 79 | 100 | 5.0 | 13.0 | 0.01 | 2.36 | 2.24 | 94 | 1010.2 |
| 20260504000319 | 79 | 77 | 3.0 | 9.0 | 0.06 | 2.36 | 2.24 | 94 | 1010.1 |
| 20260503235813 | 79 | 102 | 2.0 | 7.0 | 0.07 | 2.36 | 2.24 | 95 | 1010.2 |
| 20260503235307 | 79 | 160 | 3.0 | 10.0 | 0.09 | 2.39 | 2.24 | 95 | 1010.1 |
| 20260503235027 | 79 | 127 | 4.0 | 10.0 | 0.10 | 2.50 | 2.24 | 94 | 1010.0 |
| 20260503234254 | 79 | 102 | 3.0 | 9.0 | 0.15 | 2.50 | 2.24 | 95 | 1009.8 |
| 20260503233749 | 79 | 64 | 2.0 | 9.0 | 0.49 | 2.50 | 2.24 | 95 | 1009.8 |
| 20260503233243 | 79 | 79 | 1.0 | 4.0 | 0.57 | 2.50 | 2.24 | 95 | 1009.7 |
| 20260503232737 | 78 | 359 | 1.0 | 4.0 | 0.57 | 2.51 | 2.24 | 95 | 1009.7 |
| 20260503232231 | 78 | 359 | 2.0 | 5.0 | 0.57 | 2.53 | 2.24 | 95 | 1009.7 |
| 20260503231727 | 78 | 115 | 4.0 | 10.0 | 0.58 | 2.56 | 2.24 | 94 | 1009.6 |
| 20260503231219 | 78 | 134 | 5.0 | 10.0 | 0.58 | 2.64 | 2.24 | 94 | 1009.6 |
| 20260503230713 | 78 | 114 | 4.0 | 10.0 | 0.57 | 2.74 | 2.23 | 94 | 1009.7 |
| 20260503230207 | 78 | 96 | 5.0 | 13.0 | 0.54 | 2.71 | 2.17 | 94 | 1009.5 |
| 20260503225701 | 78 | 95 | 6.0 | 13.0 | 0.54 | 2.72 | 2.17 | 94 | 1009.3 |
| 20260503225155 | 77 | 62 | 7.0 | 16.0 | 0.54 | 2.69 | 2.15 | 94 | 1009.3 |
| 20260503224649 | 77 | 359 | 11.0 | 25.0 | 0.64 | 2.68 | 2.13 | 94 | 1009.3 |
| 20260503224143 | 77 | 137 | 8.0 | 25.0 | 0.82 | 2.61 | 2.07 | 94 | 1009.2 |
| 20260503223638 | 77 | 112 | 2.0 | 19.0 | 0.57 | 2.24 | 1.74 | 95 | 1009.4 |
| 20260503223357 | 77 | 359 | 0.0 | 7.0 | 0.80 | 2.21 | 1.66 | 95 | 1009.1 |
| 20260503222624 | 77 | 359 | 0.0 | 0.0 | 0.85 | 2.21 | 1.66 | 95 | 1009.0 |
| 20260503222120 | 77 | 127 | 1.0 | 4.0 | 0.89 | 2.21 | 1.66 | 95 | 1008.9 |
| 20260503221837 | 77 | 176 | 3.0 | 7.0 | 0.94 | 2.20 | 1.65 | 95 | 1008.7 |
| 20260503221108 | 77 | 149 | 5.0 | 11.0 | 1.22 | 2.20 | 1.65 | 94 | 1008.5 |
| 20260503220602 | 77 | 137 | 5.0 | 11.0 | 1.62 | 2.20 | 1.65 | 94 | 1008.4 |
| 20260503220055 | 77 | 359 | 4.0 | 10.0 | 1.62 | 2.18 | 1.63 | 94 | 1008.4 |
| 20260503215550 | 77 | 136 | 6.0 | 20.0 | 1.62 | 2.17 | 1.63 | 94 | 1008.5 |
| 20260503215043 | 78 | 359 | 9.0 | 20.0 | 1.58 | 2.13 | 1.59 | 94 | 1008.4 |
| 20260503214537 | 77 | 120 | 6.0 | 18.0 | 1.45 | 2.00 | 1.46 | 94 | 1008.4 |
| 20260503214033 | 77 | 123 | 6.0 | 13.0 | 1.19 | 1.74 | 1.20 | 94 | 1008.5 |
| 20260503213525 | 77 | 138 | 7.0 | 13.0 | 1.07 | 1.62 | 1.10 | 94 | 1008.3 |
| 20260503213020 | 77 | 133 | 6.0 | 11.0 | 0.86 | 1.41 | 0.86 | 94 | 1008.2 |
| 20260503212513 | 77 | 118 | 5.0 | 11.0 | 0.79 | 1.34 | 0.80 | 94 | 1008.3 |
| 20260503212007 | 77 | 146 | 4.0 | 12.0 | 0.76 | 1.31 | 0.77 | 94 | 1008.3 |
| 20260503211501 | 77 | 140 | 3.0 | 12.0 | 0.62 | 1.17 | 0.66 | 94 | 1008.2 |
| 20260503210955 | 77 | 109 | 1.0 | 8.0 | 0.35 | 0.91 | 0.35 | 94 | 1008.3 |
| 20260503210449 | 78 | 56 | 2.0 | 8.0 | 0.03 | 0.58 | 0.03 | 94 | 1008.2 |
| 20260503205942 | 78 | 354 | 0.0 | 6.0 | 0.01 | 0.56 | 0.01 | 94 | 1008.2 |
| 20260503205437 | 78 | 238 | 0.0 | 0.0 | 0.00 | 0.55 | 0.00 | 94 | 1008.1 |
| 20260503204938 | 78 | 359 | 0.0 | 0.0 | 0.00 | 0.55 | 0.00 | 94 | 1008.1 |
| 20260503204438 | 78 | 238 | 0.0 | 0.0 | 0.00 | 0.55 | 0.00 | 93 | 1007.9 |
| 20260503203939 | 78 | 231 | 0.0 | 0.0 | 0.00 | 0.55 | 0.00 | 93 | 1007.9 |
| 20260503203438 | 78 | 228 | 0.0 | 0.0 | 0.00 | 0.55 | 0.00 | 93 | 1007.9 |
| 20260503202937 | 78 | 231 | 0.0 | 0.0 | 0.00 | 0.55 | 0.00 | 93 | 1007.9 |
| 20260503202438 | 78 | 229 | 0.0 | 0.0 | 0.00 | 0.55 | 0.00 | 93 | 1007.8 |
| 20260503201937 | 78 | 233 | 0.0 | 0.0 | 0.00 | 0.55 | 0.00 | 93 | 1007.8 |
| 20260503201438 | 78 | 233 | 0.0 | 0.0 | 0.00 | 0.55 | 0.00 | 93 | 1007.8 |
| 20260503200948 | 78 | 190 | 0.0 | 0.0 | 0.00 | 0.55 | 0.00 | 93 | 1007.8 |
| 20260503200437 | 78 | 190 | 0.0 | 0.0 | 0.00 | 0.55 | 0.00 | 93 | 1007.8 |
| 20260503195937 | 78 | 190 | 0.0 | 0.0 | 0.00 | 0.55 | 0.00 | 93 | 1007.8 |
| 20260503195437 | 78 | 193 | 0.0 | 0.0 | 0.00 | 0.55 | 0.00 | 93 | 1007.7 |
| 20260503194937 | 78 | 191 | 0.0 | 0.0 | 0.00 | 0.55 | 0.00 | 93 | 1007.7 |
| 20260503194700 | 78 | 190 | 0.0 | 0.0 | 0.00 | 0.55 | 0.00 | 93 | 1007.7 |
| 20260503193935 | 78 | 190 | 0.0 | 0.0 | 0.00 | 0.55 | 0.00 | 93 | 1007.7 |
| 20260503193436 | 78 | 210 | 0.0 | 0.0 | 0.00 | 0.55 | 0.00 | 93 | 1007.6 |
| 20260503192929 | 78 | 172 | 0.0 | 0.0 | 0.00 | 0.55 | 0.00 | 93 | 1007.6 |
| 20260503192423 | 78 | 176 | 0.0 | 0.0 | 0.00 | 0.55 | 0.00 | 93 | 1007.6 |
| 20260503191921 | 78 | 193 | 0.0 | 0.0 | 0.00 | 0.55 | 0.00 | 93 | 1007.7 |
| 20260503191421 | 78 | 192 | 0.0 | 0.0 | 0.00 | 0.55 | 0.00 | 94 | 1007.7 |
| 20260503190921 | 78 | 359 | 0.0 | 0.0 | 0.00 | 0.55 | 0.00 | 94 | 1007.6 |
| 20260503190421 | 78 | 194 | 0.0 | 0.0 | 0.00 | 0.55 | 0.00 | 94 | 1007.7 |
| 20260503185921 | 78 | 195 | 0.0 | 0.0 | 0.00 | 0.55 | 0.00 | 93 | 1007.7 |
| 20260503185649 | 78 | 172 | 0.0 | 0.0 | 0.00 | 0.55 | 0.00 | 93 | 1007.6 |
| 20260503185410 | 78 | 141 | 0.0 | 0.0 | 0.00 | 0.55 | 0.00 | 93 | 1007.6 |
| 20260503184458 | 78 | 209 | 0.0 | 0.0 | 0.00 | 0.55 | 0.00 | 93 | 1007.7 |
| 20260503184421 | 78 | 183 | 0.0 | 0.0 | 0.00 | 0.55 | 0.00 | 93 | 1007.6 |
| 20260503183409 | 78 | 199 | 0.0 | 1.0 | 0.00 | 0.55 | 0.00 | 93 | 1007.8 |
| 20260503182642 | 78 | 359 | 0.0 | 0.0 | 0.00 | 0.55 | 0.00 | 93 | 1007.8 |
| 20260503181921 | 79 | 113 | 1.0 | 4.0 | 0.00 | 0.55 | 0.00 | 93 | 1007.8 |
| 20260503181421 | 79 | 116 | 2.0 | 4.0 | 0.00 | 0.55 | 0.00 | 93 | 1007.8 |
| 20260503180921 | 78 | 104 | 3.0 | 6.0 | 0.00 | 0.55 | 0.00 | 93 | 1007.7 |
| 20260503180422 | 78 | 104 | 2.0 | 6.0 | 0.00 | 0.55 | 0.00 | 93 | 1007.8 |
| 20260503175919 | 78 | 102 | 1.0 | 4.0 | 0.00 | 0.55 | 0.00 | 93 | 1007.8 |
| 20260503175419 | 78 | 100 | 0.0 | 2.0 | 0.00 | 0.55 | 0.00 | 93 | 1007.9 |
| 20260503174918 | 78 | 125 | 0.0 | 2.0 | 0.00 | 0.55 | 0.00 | 93 | 1007.9 |
| 20260503174417 | 78 | 137 | 2.0 | 4.0 | 0.00 | 0.55 | 0.00 | 93 | 1007.9 |
| 20260503173917 | 78 | 104 | 3.0 | 7.0 | 0.00 | 0.55 | 0.00 | 93 | 1008.0 |
| 20260503173416 | 78 | 103 | 2.0 | 7.0 | 0.00 | 0.55 | 0.00 | 93 | 1008.0 |
| 20260503172918 | 78 | 94 | 2.0 | 6.0 | 0.00 | 0.55 | 0.00 | 93 | 1008.1 |
| 20260503172417 | 78 | 92 | 1.0 | 6.0 | 0.00 | 0.55 | 0.00 | 93 | 1008.1 |
| 20260503171917 | 78 | 89 | 0.0 | 0.0 | 0.00 | 0.55 | 0.00 | 94 | 1008.3 |
| 20260503171634 | 78 | 114 | 0.0 | 0.0 | 0.00 | 0.55 | 0.00 | 94 | 1008.4 |
| 20260503170913 | 78 | 116 | 0.0 | 0.0 | 0.00 | 0.55 | 0.00 | 94 | 1008.4 |
| 20260503170413 | 78 | 359 | 0.0 | 0.0 | 0.00 | 0.55 | 0.00 | 94 | 1008.3 |
| 20260503151004 | 78 | 54 | 1.0 | 10.0 | 0.03 | 0.55 | 0.54 | 94 | 1008.8 |
| 20260503150236 | 78 | 74 | 0.0 | 0.0 | 0.01 | 0.53 | 0.53 | 94 | 1008.9 |